Regional Weather Roundup
Issued by NWS

Home | Current Version | Previous Version | Text Only | Print | Product List | Glossary Off
Versions: 1 2 3 4 5 6 7 8 9 10 11 12 13 14 15 16 17 18 19 20 21 22 23 24 25 26 27 28 29 30 31 32 33 34 35 36 37 38 39 40 41 42 43 44 45 46 47 48 49 50

000
ASUS43 KMKX 300621
RWRWI

WISCONSIN REGIONAL WEATHER ROUNDUP
NATIONAL WEATHER SERVICE MILWAUKEE/SULLIVAN WI
100 AM CDT MON MAY 30 2016

NOTE: "FAIR" INDICATES FEW OR NO CLOUDS BELOW 12,000 FEET WITH NO
SIGNIFICANT WEATHER AND/OR OBSTRUCTIONS TO VISIBILITY.

WIZ001-002-006>008-014>016-023>028-300700-
NORTHWEST WISCONSIN

CITY           SKY/WX    TMP DP  RH WIND       PRES   REMARKS
SUPERIOR ARPT  CLEAR     53  51  96 SW5       29.94R
6HR MIN TEMP:  51; 6HR MAX TEMP:  71;

ASHLAND        CLEAR     53  51  93 SW6       29.93S
6HR MIN TEMP:  53; 6HR MAX TEMP:  70;

HAYWARD        CLEAR     51  49  92 S3        29.97S
6HR MIN TEMP:  51; 6HR MAX TEMP:  72;

SIREN          CLEAR     55  52  90 CALM      29.98S
6HR MIN TEMP:  55; 6HR MAX TEMP:  73;

CUMBERLAND     CLEAR     55  54  94 CALM      29.99S
RICE LAKE      PTCLDY    58  57  94 CALM      30.00S
6HR MIN TEMP:  58; 6HR MAX TEMP:  73;

CHETEK         MOCLDY    58  58 100 CALM      29.99S
6HR MIN TEMP:  57; 6HR MAX TEMP:  73; 6HR PCP:  0.02;

LADYSMITH      PTCLDY    56  55  95 CALM      30.00R
6HR MIN TEMP:  55; 6HR MAX TEMP:  72;

EAU CLAIRE     CLEAR     61  57  87 CALM      29.98R
6HR MIN TEMP:  58; 6HR MAX TEMP:  75;

MENOMONIE      PTCLDY    60  55  83 W3        29.99S
6HR MIN TEMP:  60; 6HR MAX TEMP:  76;

NEW RICHMOND   CLEAR     59  57  95 CALM      30.00S
6HR MIN TEMP:  58; 6HR MAX TEMP:  73;

OSCEOLA        CLEAR     56  56 100 CALM      30.02R
6HR MIN TEMP:  56; 6HR MAX TEMP:  74;

$$

WIZ003>005-009-010-017-018-300700-
NORTH CENTRAL WISCONSIN

CITY           SKY/WX    TMP DP  RH WIND       PRES   REMARKS
MANITOWISH WTR NOT AVBL
ARBOR VITAE    CLEAR     57  55  95 CALM      29.96S
6HR MIN TEMP:  53; 6HR MAX TEMP:  66;

WOODRUFF       CLEAR     57  55  95 CALM      29.96S
6HR MIN TEMP:  53; 6HR MAX TEMP:  66;

RHINELANDER    FOG       50  49  96 W5        29.97S VSB 1/2
6HR MIN TEMP:  51; 6HR MAX TEMP:  68;

EAGLE RIVER    FOG       51  51 100 CALM      29.95S VSB 1
LAND O LAKES   CLEAR     55  55 100 W3        29.96R
6HR MIN TEMP:  51; 6HR MAX TEMP:  62; 6HR PCP:  0.02;

PHILLIPS       CLEAR     51  51 100 CALM      29.97S FOG
6HR MIN TEMP:  51; 6HR MAX TEMP:  69;

TOMAHAWK       CLEAR     50  49  97 CALM      29.98S
6HR MIN TEMP:  49; 6HR MAX TEMP:  69;

MEDFORD        CLEAR     59  57  91 W3        29.98S
6HR MIN TEMP:  58; 6HR MAX TEMP:  69;

MERRILL        CLEAR    N/A N/A N/A CALM      29.98S
$$

WIZ029-030-035-036-043>047-300700-
CENTRAL WISCONSIN

CITY           SKY/WX    TMP DP  RH WIND       PRES   REMARKS
WAUSAU         PTCLDY    62  56  80 NW6       29.96S
6HR MIN TEMP:  60; 6HR MAX TEMP:  73;

MOSINEE        MOCLDY    59  55  88 W6        29.99S
MARSHFIELD     CLOUDY    63  56  78 N3        29.98R
6HR MIN TEMP:  60; 6HR MAX TEMP:  72;

STEVENS POINT  CLEAR     57  54  89 SW3       29.98S
6HR MIN TEMP:  57; 6HR MAX TEMP:  72;

WAUPACA        CLEAR     60  59  98 CALM      29.97S
6HR MIN TEMP:  59; 6HR MAX TEMP:  77; 6HR PCP:  0.01;

WAUTOMA        PTCLDY   N/A N/A N/A CALM      29.99S
WISC RAPIDS    CLOUDY    60  56  86 SW5       29.99S
6HR MIN TEMP:  56; 6HR MAX TEMP:  76;

CAMP DOUGLAS   MOCLDY    57  57 100 SE1       29.98S
6HR MIN TEMP:  55; 6HR MAX TEMP:  73; 6HR PCP: TRACE;

$$

WIZ011>013-019>022-031-037>040-048>050-300700-
NORTHEAST WISCONSIN

CITY           SKY/WX    TMP DP  RH WIND       PRES   REMARKS
ANTIGO         CLEAR     55  54  95 CALM      29.98S
6HR MIN TEMP:  55; 6HR MAX TEMP:  68;

SHAWANO        PTCLDY    61  57  86 CALM      29.95F
6HR MIN TEMP:  61; 6HR MAX TEMP:  76;

OCONTO         MOCLDY   N/A N/A N/A CALM      29.94S
STURGEON BAY   NOT AVBL
GREEN BAY      CLEAR     63  57  81 W3        29.95S
6HR MIN TEMP:  63; 6HR MAX TEMP:  75;

MANITOWOC      CLEAR     63  58  83 W6        29.96S
6HR MIN TEMP:  63; 6HR MAX TEMP:  75;

APPLETON       CLEAR     61  54  77 W6        29.96S
CLINTONVILLE   CLEAR     59  55  88 W3        29.96S
OSHKOSH        CLEAR     65  56  72 SW3       29.97S
6HR MIN TEMP:  64; 6HR MAX TEMP:  76;

$$

WIZ032>034-041-042-053>061-300700-
SOUTHWEST WISCONSIN

CITY           SKY/WX    TMP DP  RH WIND       PRES   REMARKS
LA CROSSE      MOCLDY    65  61  87 S7        29.99R
6HR MIN TEMP:  64; 6HR MAX TEMP:  76;

SPARTA         PTCLDY    55  55  97 CALM      30.00S
6HR MIN TEMP:  55; 6HR MAX TEMP:  76;

VIROQUA        PTCLDY    63  57  82 CALM      30.02S
6HR MIN TEMP:  62; 6HR MAX TEMP:  72;

BOSCOBEL       FOG       59  57  93 CALM      30.01S VSB 1/4
6HR MIN TEMP:  59; 6HR MAX TEMP:  79;

PRAIRIE DU CHI MOCLDY    60  57  89 CALM      30.01S
6HR MIN TEMP:  60; 6HR MAX TEMP:  78;

PLATTEVILLE    CLEAR     66  60  82 CALM      30.02S
6HR MIN TEMP:  65; 6HR MAX TEMP:  75;

$$

WIZ056-057-062-063-064-067-068-300700-
SOUTH CENTRAL WISCONSIN

CITY           SKY/WX    TMP DP  RH WIND       PRES   REMARKS
REEDSBURG      PTCLDY    61  60  99 CALM      30.00S
6HR MIN TEMP:  61; 6HR MAX TEMP:  75;

BARABOO/DELLS  CLEAR     62  58  87 CALM      30.00S
6HR MIN TEMP:  62; 6HR MAX TEMP:  74;

LONE ROCK      CLEAR     60  58  92 CALM      30.01S
6HR MIN TEMP:  60; 6HR MAX TEMP:  71; 6HR PCP:  0.04;

MINERAL POINT  CLEAR     66  59  77 CALM      30.02S
MADISON        CLEAR     63  60  90 CALM      29.99S
6HR MIN TEMP:  61; 6HR MAX TEMP:  76; 6HR PCP:  0.21;

MIDDLETON      CLEAR     61  59  93 W5        30.01S
6HR MIN TEMP:  61; 6HR MAX TEMP:  74;

WATERTOWN      CLEAR     64  60  88 SW3       29.99S
6HR MIN TEMP:  64; 6HR MAX TEMP:  75;

MONROE         PTCLDY    66  55  68 W8        30.02R
JANESVILLE     CLEAR     63  59  88 CALM      30.00S
$$

WIZ051-052-058>065-066-070>072-300700-
SOUTHEAST WISCONSIN

CITY           SKY/WX    TMP DP  RH WIND       PRES   REMARKS
MILWAUKEE      MOCLDY    69  58  67 W6        29.98S
6HR MIN TEMP:  69; 6HR MAX TEMP:  78;

WAUKESHA       MOCLDY    64  54  68 W7        30.00S
MILWAUKEE/TIMM MOCLDY    64  54  68 W6        29.99S
RACINE         CLOUDY    68  58  70 SW6       30.00S
6HR MIN TEMP:  66; 6HR MAX TEMP:  78;

BURLINGTON     PTCLDY    61  59  93 CALM      30.00R
6HR MIN TEMP:  60; 6HR MAX TEMP:  75;

KENOSHA        CLOUDY    64  58  80 SW8       29.99S
6HR MIN TEMP:  61; 6HR MAX TEMP:  76;

FOND DU LAC    CLEAR     63  58  83 W6        29.98S
6HR MIN TEMP:  63; 6HR MAX TEMP:  76;

SHEBOYGAN      CLEAR     60  56  86 W5        29.97R
6HR MIN TEMP:  60; 6HR MAX TEMP:  75;

WEST BEND      MOCLDY    64  55  72 W3        29.99R
JUNEAU         CLEAR     62  57  86 SW3       30.00S
6HR MIN TEMP:  62; 6HR MAX TEMP:  74;

$$

LSZ147-162-300700-
LAKE SUPERIOR

STATION/POSITION TIME  TEMP    WIND        PRES    WAVE
                       AIR SEA DIR/SP/G            HT/PER
                 (UTC) (F)     (DEG/KT/KT) (MB)    (FT/S)
W MID LAKE BUOY  0550   44 38  240/ 10/ 12 1012.2R   1/ 3
DEVILS ISLAND    0600   53     280/ 11/ 12 1012.7R
SAXON HARBOR     0540   54     200/  7/  8 1012.5S
$$

LMZ867-665-643>646-300700-
LAKE MICHIGAN

STATION/POSITION TIME  TEMP    WIND        PRES    WAVE
                       AIR SEA DIR/SP/G            HT/PER
                 (UTC) (F)     (DEG/KT/KT) (MB)    (FT/S)
CHAMBERS ISLAND  0500   63     220/  3/  5 1013.2
N MID LAKE BUOY  0550   53 47  230/ 10/ 10 1012.6R   2/ 4
NORTHPORT PIER   0500   63     260/  4/  7 1012.9S
KEWAUNEE LAKESHO 0500   65     300/  3/  4 1013.4R
SHEBOYGAN LAKESH 0600   67     260/  7/  8 1014.9R
PORT WASHINGTON  0500   68     260/  5/  7 1015.2R
S MID LC1F1C2F2C3F3C4F4C5F5C6F6C7F7C8M1C9M2Ca!



USA.gov is the U.S. government's official web portal to all federal, state and local government web resources and services.